User: anonymous   Login
Location: Treviso
(45.6669°N, 12.2430°E)
Time: 14:41:34
(UTC+02:00)
Language:

ISS - Orbit

View from above orbital plane
View from above orbital plane
View from above satellite
View from above satellite

Ground track
Ground track

The orbit data is extracted from the following two-line orbital elements,

1 25544U 98067A   19170.55273396  .00016717  00000-0  10270-3 0  9027
2 25544  51.6397 349.5620 0007935  63.0841 297.1120 15.51190386 15612
Epoch (UTC): 19 June 2019 13:15:56
Eccentricity: 0.0007935
inclination: 51.6397°
perigee height: 408 km
apogee height: 418 km
right ascension of ascending node: 349.5620°
argument of perigee: 63.0841°
revolutions per day: 15.51190386
mean anomaly at epoch: 297.1120°
orbit number at epoch: 1561

The dashed part of the orbit path shows where the satellite is in the earth's shadow,  

DLR